#timestamp,LO_Frequency,Hit,StdDev 
1602781215.6,286047010.8,Y
1602781235.5,286047007.1,P
1602781255.3,286047005.8,N
1602781275.2,286047003.2,N
1602781295.9,286047006.6,Y
1602781315.7,286047001.0,P
1602781335.6,286046996.9,N
1602781355.4,286046999.1,N
1602781375.2,286047002.8,N
1602781395.1,286047005.1,N
1602781415.9,286047007.2,N
1602781435.7,286047006.7,N
1602781455.5,286047006.0,N
1602781475.4,286047005.5,N
1602781495.2,286047003.4,N
1602781515.0,286047006.9,N
1602781515.9,286047006.9,N
1602781535.8,286047005.4,N
1602781555.6,286047003.8,N
1602781575.5,286047001.3,N
1602781595.3,286047000.6,N
1602781615.1,286046997.0,N
1602781635.9,286046998.2,N
1602781655.7,286047005.1,N
1602781675.6,286047005.6,N
1602781695.4,286047007.4,N
1602781715.2,286047007.8,N
1602781735.1,286047007.7,N
1602781736.0,286047007.7,N
1602781755.8,286047005.7,N
1602781775.6,286047004.8,N
1602781795.5,286047005.8,N
1602781815.3,286047006.8,N
1602781835.2,286047006.2,N
1602781855.9,286047005.2,N
1602781875.7,286047008.3,N
1602781895.6,286047009.5,N
1602781915.4,286047009.6,Y
1602781935.3,286047005.2,P
1602781955.1,286047003.1,P
1602781956.0,286047003.1,P
1602781975.8,286047005.8,Y
1602781995.7,286047009.2,P
1602782015.5,286047005.5,N
1602782035.4,286047001.2,N
1602782055.2,286046998.6,N
1602782075.0,286047005.6,N
1602782075.9,286047005.6,N
1602782095.8,286047005.2,N
1602782115.6,286047007.4,N
1602782135.5,286047010.8,Y
1602782155.3,286047002.4,P
1602782175.1,286047003.1,N
1602782195.9,286047006.1,P
1602782215.7,286047005.5,Y
1602782235.6,286046994.9,P
1602782255.4,286046996.8,N
1602782275.2,286046997.5,N
1602782295.1,286046995.2,N
1602782296.0,286046995.2,N
1602782315.8,286046996.1,N
1602782335.6,286046993.7,N
1602782355.5,286046997.9,N
1602782375.3,286046997.3,N
1602782395.2,286046996.4,N
1602782415.9,286046997.2,N
1602782435.7,286046992.5,Y
1602782455.6,286046995.4,P
1602782475.4,286046999.2,N
1602782495.3,286046997.0,N
1602782515.1,286046993.6,Y
1602782535.8,286046993.6,P
1602782555.7,286046998.0,N
1602782575.5,286047003.3,N
1602782595.4,286047005.0,N
1602782615.2,286047003.1,N
1602782635.0,286047006.9,N
1602782635.9,286047006.9,N
1602782655.8,286047007.5,N
1602782675.6,286047006.0,N
1602782695.5,286047005.8,N
1602782715.3,286047003.8,N
1602782735.1,286047000.6,N
1602782755.9,286046999.9,N
1602782775.7,286047003.1,N
1602782795.5,286047002.0,N
1602782815.4,286047011.9,Y
1602782835.2,286046998.4,P
1602782855.1,286046998.7,N
1602782856.0,286046998.7,N
1602782875.8,286046999.6,N
1602782895.6,286046998.5,N
1602782915.5,286047002.3,N
1602782935.3,286047002.0,N
1602782955.1,286047000.0,N
1602782975.9,286047000.3,N
1602782995.7,286047000.9,N
1602783015.6,286047001.2,N
1602783035.4,286046998.6,N
1602783055.2,286047000.8,N
1602783075.1,286047005.8,Y
1602783076.0,286047005.8,P
1602783095.8,286047007.3,N
1602783115.7,286047004.5,N
1602783135.5,286047003.4,N
1602783155.3,286047002.3,N
1602783175.2,286047003.2,N
1602783195.0,286047001.8,N
1602783195.9,286047001.8,N
1602783215.7,286047001.5,N
1602783235.6,286047000.2,N
1602783255.4,286047003.2,N
1602783275.3,286047003.8,N
1602783295.1,286047001.5,N
1602783296.0,286047001.5,N
1602783315.8,286047001.9,N
1602783335.7,286047005.5,N
1602783355.5,286047005.7,N
1602783375.4,286047004.6,N
1602783395.2,286047007.4,Y
1602783415.0,286047003.7,P
1602783415.9,286047003.7,P
1602783435.8,286047008.4,P
1602783455.6,286047005.1,N
1602783475.4,286046999.6,N
1602783495.3,286046996.4,N
1602783515.1,286046998.2,N
1602783535.9,286047003.6,N
1602783555.7,286047006.7,N
1602783575.5,286047000.0,N
1602783595.4,286047002.3,N
1602783615.2,286047003.3,N
1602783635.0,286046999.7,N
1602783636.0,286046999.7,N
1602783655.8,286047000.6,N
1602783675.6,286047000.8,N
1602783695.5,286047003.2,N
1602783715.3,286047002.0,N
1602783735.1,286047002.3,N
1602783755.9,286047007.6,N
1602783775.7,286047009.0,Y
1602783795.6,286047003.7,P
1602783815.4,286047000.5,N
1602783835.2,286046996.7,N
1602783855.1,286046998.9,N
1602783856.0,286046998.9,N
1602783875.8,286047001.9,N
1602783895.6,286047001.8,N
1602783915.5,286047001.6,N
1602783935.3,286046999.7,N
1602783955.2,286047005.7,N
1602783975.9,286047001.8,N
1602783995.7,286047007.2,Y
1602784015.6,286047007.6,P
1602784035.4,286047003.2,N
1602784055.3,286046999.8,N
1602784075.1,286047001.9,N
1602784076.0,286047001.9,N
1602784095.8,286047000.0,N
1602784115.7,286047000.2,N
1602784135.5,286047003.2,N
1602784155.3,286047000.2,N
1602784175.2,286047001.5,N
1602784195.0,286047005.5,N
1602784195.9,286047005.5,N
1602784215.8,286047005.8,N
1602784235.6,286047000.9,N
1602784255.4,286046999.6,N
1602784275.3,286046998.5,N
1602784295.1,286047000.9,N
1602784315.9,286047002.2,N
1602784335.7,286047007.3,Y
1602784355.6,286047005.8,P
1602784375.4,286047006.8,P
1602784395.2,286047005.5,N
1602784415.1,286047003.8,N
1602784416.0,286047003.8,N
1602784435.8,286047003.6,N
1602784455.6,286047004.3,N
1602784475.5,286047004.4,Y
1602784495.3,286046995.5,P
1602784515.2,286046999.3,N
1602784535.9,286047000.7,N
1602784555.7,286046998.9,N
1602784575.6,286046998.0,N
1602784595.4,286046997.6,N
1602784615.3,286046997.2,N
1602784635.1,286047001.0,N
1602784636.0,286047001.0,N
1602784655.8,286046998.5,N
1602784675.7,286046998.7,N
1602784695.5,286046999.4,N
1602784715.3,286047001.8,N
1602784735.2,286047001.5,N
1602784755.0,286047005.7,N
1602784755.9,286047005.7,N
1602784775.8,286047003.4,N
1602784795.6,286047006.0,N
